{"data":{"norad_id":56799,"epoch":"2026-05-25T03:45:46.719072Z","epoch_age_seconds":68414,"freshness":"FRESH","line1":"1 56799U 23078AJ  26145.15679073  .00000432  00000+0  44014-4 0  9997","line2":"2 56799  69.9984 151.6762 0003714 267.5289  92.5444 14.98329741164136","mean_motion":14.98329741,"eccentricity":0.0003714,"inclination_deg":69.9984,"raan_deg":151.6762,"arg_perigee_deg":267.5289,"mean_anomaly_deg":92.5444,"bstar":4.4014e-5,"rev_number":16413,"period_min":96.107015738667,"perigee_km":569.4753899435,"apogee_km":574.63799381783,"semimajor_km":6950.1936918807,"source":"CELESTRAK","updated_at":"2026-05-25T13:38:18.158014Z"}}